Flag for Ukraine

Past Weather in Kryvyi Rih, Ukraine — Yesterday and Last 2 Weeks

Currently: 30 °F. Passing clouds. (Weather station: Krivyy Rih / Dnipropetrovs'k, Ukraine). See more current weather

Past Weather in Kryvyi Rih — Graph

°F

Kryvyi Rih Temperature Yesterday

Maximum temperature yesterday: 32 °F (at 12:00 am)
Minimum temperature yesterday: 28 °F (at 7:00 pm)
Average temperature yesterday: 30 °F

High & Low Weather Summary for the Past Weeks

 TemperatureHumidityPressure
High52 °F (Nov 27, 2:00 pm)100% (Nov 27, 11:45 pm)30.42 "Hg (Nov 27, 11:45 pm)
Low25 °F (Nov 22, 9:00 pm)57% (Nov 23, 2:00 pm)30.04 "Hg (Nov 28, 11:30 am)
Average35 °F86%30.23 "Hg
* Reported Nov 20 7:00 pm — Dec 5 7:30 pm, Kryvyi Rih. Weather by CustomWeather, © 2020

Note: Actual official high and low records may vary slightly from our data, if they occured in-between our weather recording intervals... More about our weather records

Kryvyi Rih Weather History for the Previous 24 Hours

Scroll right to see more
 ConditionsComfort  
Time TempWeatherWind HumidityBarometerVisibility
7:30 pm
Sat, Dec 5
30 °FPassing clouds.10 mph75%30.42 "HgN/A
7:00 pm32 °FPassing clouds.10 mph75%30.42 "HgN/A
6:30 pm32 °FPassing clouds.10 mph80%30.42 "HgN/A
6:00 pm32 °FPassing clouds.10 mph80%30.42 "HgN/A
5:30 pm32 °FPassing clouds.8 mph87%30.42 "HgN/A
5:00 pm34 °FOvercast.6 mph87%30.42 "HgN/A
4:30 pm34 °FOvercast.8 mph87%30.39 "HgN/A
4:00 pm34 °FOvercast.8 mph87%30.39 "HgN/A
3:30 pm34 °FOvercast.6 mph81%30.39 "HgN/A
3:00 pm34 °FOvercast.8 mph81%30.39 "HgN/A
2:30 pm34 °FOvercast.6 mph81%30.39 "HgN/A
2:00 pm32 °FOvercast.8 mph87%30.39 "HgN/A
1:30 pm32 °FLow clouds.13 mph87%30.39 "HgN/A
1:00 pm32 °FLow clouds.10 mph80%30.39 "HgN/A
12:30 pm30 °FLow clouds.13 mph93%30.39 "HgN/A
12:00 pm30 °FLow clouds.13 mph86%30.39 "HgN/A
11:30 am30 °FLow clouds.13 mph80%30.39 "Hg4 mi
11:00 am28 °FLow clouds.10 mph93%30.39 "HgN/A
10:30 am28 °FLow clouds.10 mph86%30.39 "Hg6 mi
10:00 am28 °FLow clouds.10 mph86%30.42 "HgN/A
9:30 am28 °FLow clouds.10 mph86%30.39 "HgN/A
9:00 am28 °FLow clouds.10 mph86%30.39 "HgN/A
8:30 am28 °FLow clouds.8 mph86%30.39 "HgN/A
8:00 am28 °FLow clouds.10 mph86%30.39 "HgN/A
7:00 am28 °FIce fog.10 mph93%30.39 "Hg3 mi
6:00 am30 °FIce fog.13 mph93%30.36 "Hg2 mi
5:00 am30 °FIce fog.10 mph93%30.36 "Hg3 mi
4:00 am30 °FIce fog.10 mph86%30.36 "Hg3 mi
3:00 am30 °FIce fog.10 mph86%30.36 "Hg2 mi
2:00 am30 °FIce fog.10 mph93%30.36 "Hg2 mi
1:09 am28 °FChilly.8 mph93%30.36 "Hg1 mi
12:58 am28 °FChilly.8 mph93%30.36 "Hg1 mi
12:00 am28 °FIce fog.10 mph93%30.36 "Hg2 mi
11:11 pm
Fri, Dec 4
28 °FIce fog.10 mph93%30.36 "Hg2 mi
11:00 pm28 °FIce fog.8 mph93%30.36 "Hg2 mi
10:16 pm28 °FIce fog.10 mph93%30.36 "Hg2 mi
10:00 pm28 °FIce fog.13 mph86%30.36 "Hg2 mi
9:14 pm28 °FIce fog.10 mph93%30.36 "Hg2 mi
9:00 pm28 °FIce fog.10 mph93%30.36 "Hg2 mi
8:30 pm28 °FIce fog.10 mph93%30.33 "Hg2 mi
8:00 pm28 °FIce fog.13 mph93%30.33 "Hg2 mi
Weather by CustomWeather, © 2020

See weather overview